[[{"header":{"parameterUnit":"m.s-1","parameterCategory":2,"la1":30.2991,"la2":30.254,"lo1":-89.0895,"lo2":-89.0444,"dy":0.0017,"dx":0.0017,"nx":28,"ny":28,"refTime":"2024-09-03T03:00:00:Z","depth":"0","parameterNumber":2,"parameterNumberName":"U-component_of_CURRENTS"},"data":[0,0,0,0,0,0,0,0,0,0,0,0,0,0,0,0,0,0,0,0,0,0,0,0,0,0,0,0,0,0,0,0,0,0,0,0,0,0,0,0,0,0,0,0,0,0,0,0,0,0,0,0,0,0,0,0,0,0,-0.2886,-0.2886,0,-0.2901,-0.2901,-0.2901,-0.2912,-0.2912,-0.2912,-0.2912,-0.2852,-0.285,-0.2849,0,0,0,0,0,0,0,0,0,0,0,0,0,-0.2873,-0.2874,-0.2886,-0.2886,-0.2886,-0.2901,-0.2901,-0.2901,-0.2912,-0.2912,-0.2912,-0.2911,-0.2852,-0.2851,-0.2849,0,0,0,0,0,0,0,0,0,0,0,0,0,-0.2885,-0.2874,-0.2886,-0.2891,-0.2891,-0.29,-0.2901,-0.2902,-0.2912,-0.2912,-0.2912,-0.2911,-0.2853,-0.2851,-0.2849,-0.2841,0,0,-0.2842,-0.2841,0,0,0,0,0,0,0,0,-0.2885,-0.2886,-0.289,-0.2891,-0.2891,-0.2902,-0.2874,-0.2877,-0.2912,-0.2907,-0.2912,-0.2911,-0.286,-0.2857,-0.2866,-0.2838,-0.2835,-0.2842,-0.2841,-0.284,-0.2839,0,0,0,0,0,0,0,-0.2884,-0.2885,-0.2895,-0.289,-0.2891,-0.2894,-0.2895,-0.2875,-0.2886,-0.2908,-0.2908,-0.2905,-0.286,-0.2868,-0.2864,-0.2834,-0.2842,-0.284,-0.2839,-0.2838,-0.2829,-0.283,0,0,0,0,0,0,-0.2876,-0.2885,-0.2895,-0.2895,-0.2884,-0.2894,-0.2896,-0.2901,-0.2888,-0.2885,-0.2905,-0.2905,-0.2872,-0.2867,-0.2862,-0.286,-0.284,-0.2838,-0.2836,-0.2828,-0.2829,-0.283,0,0,0,0,0,0,-0.2876,-0.2877,-0.2894,-0.2887,-0.2889,-0.2894,-0.29,-0.2901,-0.2903,-0.2886,-0.2882,-0.2904,-0.2871,-0.2865,-0.2849,-0.2857,-0.2837,-0.2835,-0.2827,-0.2828,-0.283,-0.2851,0,0,0,0,0,0,-0.2876,-0.2877,-0.2874,-0.2887,-0.2889,-0.2904,-0.29,-0.2902,-0.29,-0.2901,-0.2883,-0.2879,-0.2871,-0.2852,-0.2847,-0.2854,-0.2833,-0.2825,-0.2827,-0.2829,-0.2849,-0.2853,-0.2857,0,0,0,0,0,-0.2875,-0.2874,-0.2874,-0.2874,-0.2886,-0.2904,-0.2906,-0.291,-0.29,-0.2909,-0.2896,-0.2879,-0.2862,-0.2851,-0.2844,-0.2851,-0.2824,-0.2827,-0.2829,-0.2847,-0.2852,-0.2856,0,0,0,0,0,0,-0.2861,-0.2875,-0.2875,-0.2876,-0.289,-0.2905,-0.2905,-0.2906,-0.2905,-0.29,-0.2881,-0.2875,-0.2877,-0.2859,-0.2847,-0.2859,-0.2844,-0.2845,-0.2861,-0.2865,-0.2869,-0.2852,-0.2831,0,0,0,0,0,-0.2857,-0.2863,-0.2877,-0.2877,-0.2882,-0.2892,-0.2895,-0.2904,-0.2904,-0.2904,-0.2895,-0.2885,-0.2883,-0.2867,-0.2872,-0.2856,-0.28,-0.2862,-0.2866,-0.2869,-0.2854,-0.2744,-0.2735,-0.2838,-0.2838,-0.2838,0,0,-0.2851,-0.2857,-0.286,-0.2875,-0.2883,-0.2906,-0.2894,-0.2906,-0.2922,-0.2894,-0.2906,-0.2901,-0.2887,-0.2892,-0.2889,-0.287,-0.2822,-0.2872,-0.2875,-0.2858,-0.2745,-0.2735,-0.2725,-0.284,-0.2839,-0.2839,0,0,-0.2855,-0.285,-0.2864,-0.2882,-0.2898,-0.2907,-0.2909,-0.2928,-0.293,-0.2946,-0.2933,-0.2914,-0.2927,-0.2901,-0.2893,-0.291,-0.2857,-0.2934,-0.2919,-0.2813,-0.2802,-0.2792,-0.2747,-0.2732,-0.292,-0.292,-0.292,0,-0.2845,-0.2861,-0.2869,-0.2896,-0.2898,-0.2908,-0.2923,-0.2941,-0.2955,-0.2928,-0.2958,-0.2928,-0.2926,-0.2878,-0.2913,-0.2913,-0.2867,-0.29,-0.2812,-0.2801,-0.279,-0.2745,-0.2728,-0.2922,-0.2922,-0.2921,-0.2921,0,-0.2868,-0.2883,-0.2891,-0.2926,-0.2936,-0.2948,-0.297,-0.2973,-0.2977,-0.2974,-0.2944,-0.294,-0.29,-0.2921,-0.2935,-0.2863,-0.2865,-0.2838,-0.279,-0.2779,-0.2736,-0.2718,-0.2924,-0.2923,-0.2923,-0.2922,0,0,-0.2805,-0.2893,-0.2888,-0.2899,-0.2944,-0.2943,-0.2968,-0.2953,-0.2921,-0.295,-0.2891,-0.2917,-0.2884,-0.2874,-0.2864,-0.2799,-0.2721,-0.2801,-0.2794,-0.2739,-0.2525,-0.2415,-0.2385,-0.267,-0.2666,-0.2663,-0.2539,0,-0.2803,-0.2862,-0.2897,-0.2917,-0.2932,-0.2945,-0.2952,-0.2944,-0.2935,-0.2892,-0.286,-0.2826,-0.2874,-0.2846,-0.279,-0.2733,-0.2669,-0.276,-0.2559,-0.2554,-0.2439,-0.2357,-0.2246,-0.2114,-0.2522,-0.2518,-0.2516,0,-0.2781,-0.2819,-0.2867,-0.2882,-0.2882,-0.2901,-0.2851,-0.2864,-0.282,-0.2806,-0.2756,-0.2738,-0.2669,-0.2708,-0.2572,-0.2628,-0.2586,-0.2547,-0.254,-0.2405,-0.2406,-0.2184,-0.2066,-0.2054,-0.2488,-0.249,-0.2492,0,-0.2697,-0.2762,-0.2792,-0.2811,-0.286,-0.2846,-0.2847,-0.282,-0.2778,-0.2734,-0.2678,-0.2615,-0.2548,-0.2485,-0.2435,-0.2493,-0.2271,-0.2322,-0.2181,-0.2176,-0.2022,-0.2008,-0.1839,-0.2197,-0.2197,-0.2197,-0.2198,0,-0.2656,-0.2655,-0.2758,-0.277,-0.2733,-0.2792,-0.2725,-0.2719,-0.2678,-0.2573,-0.2613,-0.2497,-0.2483,-0.2369,-0.2364,-0.219,-0.2192,-0.2145,-0.2102,-0.2035,-0.2023,-0.1959,-0.1998,-0.2193,-0.2194,-0.2195,-0.2195,0,-0.2545,-0.2643,-0.2644,-0.2701,-0.2704,-0.2669,-0.2642,-0.2572,-0.258,-0.2443,-0.2418,-0.2362,-0.2222,-0.2194,-0.2066,-0.2045,-0.1874,-0.1873,-0.1828,-0.178,-0.1658,-0.1704,-0.1481,-0.1449,-0.1705,-0.1701,-0.1697,0,-0.2482,-0.2501,-0.2557,-0.253,-0.255,-0.2523,-0.2469,-0.25,-0.2412,-0.2321,-0.2208,-0.2097,-0.1958,-0.1768,-0.1709,-0.1625,-0.1672,-0.1477,-0.1553,-0.1587,-0.1608,-0.1669,-0.1667,-0.1396,-0.139,-0.1386,-0.1382,0,-0.2318,-0.2368,-0.2373,-0.2343,-0.2307,-0.2255,-0.2192,-0.2128,-0.2113,-0.2033,-0.1874,-0.1789,-0.1624,-0.1463,-0.137,-0.1325,-0.1424,-0.1378,-0.1388,-0.1306,-0.1381,-0.1352,-0.1611,-0.1341,-0.1346,-0.1349,-0.1351,-0.1352,-0.2133,-0.2114,-0.214,-0.208,-0.2043,-0.1953,-0.1855,-0.181,-0.1701,-0.1554,-0.1561,-0.1403,-0.1288,-0.1143,-0.1091,-0.0984,-0.1113,-0.0981,-0.1028,-0.1085,-0.1043,-0.1233,-0.0924,-0.0926,-0.0927,-0.0929,-0.093,0,-0.1868,-0.1897,-0.1849,-0.1784,-0.166,-0.1731,-0.1613,-0.1507,-0.1353,-0.1284,-0.1183,-0.1005,-0.0866,-0.0814,-0.0713,-0.0665,-0.072,-0.066,-0.0743,-0.0756,-0.087,-0.0846,-0.0532,-0.0532,-0.0533,-0.0533,-0.0533,-0.0533,-0.1724,-0.1647,-0.1663,-0.1418,-0.1366,-0.1182,-0.1105,-0.1022,-0.0947,-0.077,-0.0668,-0.0629,-0.0601,-0.0579,-0.0517,-0.0495,-0.0552,-0.0489,-0.0577,-0.0699,-0.0735,-0.077,-0.0754,-0.0427,-0.0427,-0.043,-0.043,-0.043]},{"header":{"parameterUnit":"m.s-1","parameterCategory":2,"la1":30.2991,"la2":30.254,"lo1":-89.0895,"lo2":-89.0444,"dy":0.0017,"dx":0.0017,"nx":28,"ny":28,"refTime":"2024-09-03T03:00:00:Z","depth":"0","parameterNumber":3,"parameterNumberName":"V-component_of_CURRENTS"},"data":[0,0,0,0,0,0,0,0,0,0,0,0,0,0,0,0,0,0,0,0,0,0,0,0,0,0,0,0,0,0,0,0,0,0,0,0,0,0,0,0,0,0,0,0,0,0,0,0,0,0,0,0,0,0,0,0,0,0,0.0005,0.0006,0,0.0099,0.01,0.0102,0.0125,0.0123,0.0122,0.0121,0.0201,0.0204,0.0207,0,0,0,0,0,0,0,0,0,0,0,0,0,-0.0058,-0.0057,0.0005,0.0006,0.0006,0.0099,0.01,0.0102,0.0125,0.0123,0.0122,0.0121,0.02,0.0204,0.0208,0,0,0,0,0,0,0,0,0,0,0,0,0,0.0001,-0.0057,0.0005,0.0025,0.0027,0.0098,0.01,0.0103,0.0125,0.0123,0.0122,0.012,0.0199,0.0203,0.0208,0.0272,0,0,0.0223,0.0225,0,0,0,0,0,0,0,0,-0.0003,0.0004,0.0021,0.0023,0.0026,0.0093,0.0107,0.0157,0.0126,0.0094,0.0121,0.0119,0.0161,0.0169,0.0199,0.0275,0.0279,0.0223,0.0226,0.0228,0.0229,0,0,0,0,0,0,0,-0.0007,0.0,0.0048,0.0022,0.0025,0.0061,0.0067,0.0118,0.014,0.0096,0.0097,0.0099,0.0163,0.0194,0.0201,0.028,0.0223,0.0227,0.023,0.0232,0.0386,0.0387,0,0,0,0,0,0,-0.0033,-0.0004,0.0045,0.005,0.0001,0.0063,0.007,0.0078,0.014,0.0146,0.01,0.0099,0.0187,0.0195,0.0203,0.0256,0.0228,0.0233,0.0235,0.0384,0.0386,0.0387,0,0,0,0,0,0,-0.0034,-0.0029,0.0041,0.002,0.0031,0.0064,0.0074,0.0081,0.009,0.0142,0.0149,0.0098,0.0186,0.0197,0.0222,0.026,0.0235,0.0239,0.0383,0.0385,0.0386,0.0377,0,0,0,0,0,0,-0.0036,-0.003,-0.0035,0.0019,0.0031,0.0064,0.0075,0.0084,0.0092,0.0092,0.0143,0.015,0.0185,0.0215,0.0227,0.0266,0.0243,0.0381,0.0384,0.0386,0.0376,0.0379,0.0381,0,0,0,0,0,-0.0039,-0.0052,-0.0035,-0.003,0.0024,0.0064,0.0074,0.0096,0.0093,0.0098,0.0124,0.0147,0.0239,0.0219,0.0233,0.0274,0.038,0.0383,0.0386,0.0375,0.0378,0.0381,0,0,0,0,0,0,-0.0087,-0.0049,-0.0031,-0.0032,0.0007,0.0064,0.0065,0.0086,0.0116,0.0107,0.0153,0.0163,0.0202,0.0236,0.0213,0.0326,0.0319,0.0324,0.0306,0.0309,0.0311,0.0314,0.0247,0,0,0,0,0,-0.0097,-0.0095,-0.0045,-0.0045,-0.0032,0.0018,0.0034,0.0054,0.0087,0.0098,0.014,0.0186,0.0233,0.0262,0.0304,0.0364,0.0379,0.0404,0.0406,0.0408,0.042,0.0495,0.0506,0.0396,0.0396,0.0396,0,0,-0.0112,-0.0096,-0.0092,-0.0055,-0.0024,-0.0001,0.0023,0.0041,0.007,0.0104,0.0146,0.0185,0.0245,0.0306,0.0331,0.0336,0.0433,0.0411,0.0412,0.0424,0.0499,0.051,0.0519,0.0398,0.0398,0.0397,0,0,-0.015,-0.0129,-0.0139,-0.0107,-0.0074,-0.0032,-0.0034,0.0025,0.0055,0.0099,0.0137,0.0196,0.0261,0.0334,0.0373,0.0418,0.0431,0.0429,0.046,0.0533,0.0542,0.0551,0.0517,0.0523,0.0445,0.0445,0.0445,0,-0.0173,-0.0175,-0.0135,-0.0132,-0.0108,-0.0053,-0.0042,0.0008,0.0071,0.0111,0.01,0.0238,0.0285,0.0392,0.041,0.0427,0.0426,0.0441,0.0535,0.0545,0.0555,0.0518,0.0525,0.0445,0.0445,0.0445,0.0445,0,-0.0209,-0.0206,-0.0211,-0.018,-0.0141,-0.013,-0.0052,-0.0009,0.003,0.0093,0.0185,0.0262,0.0347,0.0385,0.0411,0.052,0.0477,0.0515,0.0524,0.0565,0.0522,0.053,0.0444,0.0445,0.0445,0.0445,0,0,-0.0277,-0.0244,-0.0247,-0.0225,-0.0167,-0.013,-0.0077,0.0008,0.0056,0.0135,0.0206,0.0325,0.0374,0.0423,0.0485,0.0568,0.0615,0.0569,0.0573,0.0524,0.0691,0.0607,0.0606,0.0668,0.0671,0.0673,0.0609,0,-0.032,-0.033,-0.0288,-0.026,-0.0249,-0.0162,-0.0102,-0.0011,0.0062,0.0147,0.0262,0.0339,0.0388,0.0428,0.0522,0.0591,0.0645,0.0623,0.0668,0.0668,0.0584,0.0618,0.0654,0.0598,0.0616,0.0617,0.0618,0,-0.0378,-0.0369,-0.0367,-0.0282,-0.0264,-0.0225,-0.0106,-0.0046,0.0089,0.0145,0.0252,0.0323,0.0448,0.0481,0.0623,0.0599,0.0644,0.0696,0.0696,0.0637,0.0602,0.0577,0.0611,0.0697,0.0629,0.0629,0.0628,0,-0.0452,-0.0417,-0.0412,-0.0389,-0.029,-0.0247,-0.0182,-0.0051,0.0009,0.0138,0.017,0.033,0.0374,0.05,0.057,0.0607,0.0683,0.0749,0.0709,0.0698,0.075,0.074,0.0878,0.086,0.086,0.086,0.086,0,-0.0522,-0.0512,-0.0444,-0.0438,-0.0389,-0.0295,-0.0222,-0.0138,-0.0028,0.0027,0.0157,0.0203,0.0388,0.0442,0.0543,0.06,0.0651,0.071,0.0704,0.0736,0.0727,0.0821,0.0849,0.0858,0.0858,0.0859,0.0859,0,-0.0604,-0.0577,-0.0552,-0.0461,-0.0432,-0.0391,-0.0275,-0.0219,-0.0125,-0.0064,-0.0037,0.0095,0.0169,0.0291,0.0447,0.0522,0.0649,0.062,0.0577,0.0569,0.0657,0.068,0.0738,0.0783,0.0606,0.0604,0.0602,0,-0.0647,-0.0654,-0.0584,-0.0559,-0.052,-0.0451,-0.0403,-0.0287,-0.0242,-0.0141,-0.0131,-0.0052,0.0022,0.0159,0.0318,0.044,0.054,0.0514,0.0643,0.0662,0.0687,0.0691,0.0728,0.0673,0.0673,0.0672,0.0671,0,-0.0707,-0.0687,-0.0659,-0.0623,-0.058,-0.0529,-0.0465,-0.0453,-0.0339,-0.0288,-0.0235,-0.0169,-0.0039,0.0141,0.0262,0.0353,0.0572,0.0499,0.0596,0.081,0.0756,0.0793,0.0625,0.0664,0.0665,0.0665,0.0666,0.0666,-0.0739,-0.0735,-0.07,-0.0655,-0.0624,-0.06,-0.0567,-0.0506,-0.0453,-0.0303,-0.0284,-0.0054,0.0068,0.0289,0.034,0.0512,0.052,0.064,0.0671,0.0675,0.0733,0.0473,0.0463,0.0463,0.0463,0.0462,0.0462,0,-0.0757,-0.0742,-0.0718,-0.0676,-0.0657,-0.0625,-0.059,-0.0535,-0.0481,-0.0236,-0.0108,0.0247,0.0367,0.0516,0.066,0.0731,0.0783,0.076,0.0858,0.0897,0.0756,0.0778,0.0746,0.0746,0.0745,0.0745,0.0745,0.0745,-0.0759,-0.0742,-0.0723,-0.0696,-0.0678,-0.0647,-0.063,-0.0538,-0.035,0.0051,0.0442,0.0704,0.0834,0.084,0.0942,0.0941,0.1049,0.0977,0.1021,0.101,0.1004,0.0999,0.1033,0.1054,0.1054,0.1203,0.1205,0.1206]}],[{"header":{"parameterUnit":"m.s-1","parameterCategory":2,"la1":30.2991,"la2":30.254,"lo1":-89.0895,"lo2":-89.0444,"dy":0.0017,"dx":0.0017,"nx":28,"ny":28,"refTime":"2024-09-03T03:00:00:Z","depth":"2","parameterNumber":2,"parameterNumberName":"U-component_of_CURRENTS"},"data":[0,0,0,0,0,0,0,0,0,0,0,0,0,0,0,0,0,0,0,0,0,0,0,0,0,0,0,0,0,0,0,0,0,0,0,0,0,0,0,0,0,0,0,0,0,0,0,0,0,0,0,0,0,0,0,0,0,0,-0.2268,-0.2268,0,-0.2358,-0.236,-0.2361,-0.2402,-0.2401,-0.2401,-0.24,-0.2348,-0.2347,-0.2347,0,0,0,0,0,0,0,0,0,0,0,0,0,-0.2179,-0.2181,-0.2268,-0.2268,-0.2269,-0.2358,-0.236,-0.2362,-0.2402,-0.2401,-0.24,-0.2399,-0.2348,-0.2347,-0.2347,0,0,0,0,0,0,0,0,0,0,0,0,0,-0.2245,-0.2181,-0.2268,-0.2294,-0.2297,-0.2357,-0.236,-0.2362,-0.2403,-0.2401,-0.24,-0.2399,-0.2348,-0.2347,-0.2347,-0.2365,0,0,-0.2344,-0.2343,0,0,0,0,0,0,0,0,-0.2242,-0.225,-0.229,-0.2292,-0.2295,-0.2361,-0.2309,-0.2353,-0.2403,-0.2371,-0.24,-0.2398,-0.2335,-0.2335,-0.2368,-0.2362,-0.236,-0.2344,-0.2343,-0.2343,-0.2342,0,0,0,0,0,0,0,-0.2237,-0.2246,-0.2311,-0.229,-0.2293,-0.2317,-0.2326,-0.2319,-0.2362,-0.2373,-0.2375,-0.2373,-0.2336,-0.2369,-0.2366,-0.2359,-0.2344,-0.2343,-0.2342,-0.2342,-0.2368,-0.237,0,0,0,0,0,0,-0.2209,-0.2242,-0.2308,-0.2313,-0.2256,-0.2319,-0.2329,-0.2347,-0.2365,-0.2365,-0.2374,-0.2374,-0.2371,-0.2367,-0.2364,-0.2385,-0.2343,-0.2342,-0.2341,-0.2367,-0.2369,-0.237,0,0,0,0,0,0,-0.2208,-0.2216,-0.2305,-0.2272,-0.2284,-0.2321,-0.2342,-0.235,-0.2365,-0.2365,-0.2364,-0.2377,-0.237,-0.2365,-0.2352,-0.2382,-0.2341,-0.234,-0.2366,-0.2368,-0.2369,-0.2426,0,0,0,0,0,0,-0.2205,-0.2215,-0.2219,-0.2271,-0.2284,-0.2322,-0.2342,-0.2352,-0.2362,-0.2364,-0.2368,-0.2364,-0.2369,-0.2354,-0.2351,-0.238,-0.234,-0.2364,-0.2367,-0.2369,-0.2422,-0.2429,-0.2435,0,0,0,0,0,-0.2202,-0.2213,-0.2219,-0.2226,-0.229,-0.2321,-0.2331,-0.2358,-0.2363,-0.2369,-0.2377,-0.2363,-0.2368,-0.2353,-0.235,-0.238,-0.2363,-0.2366,-0.2369,-0.2419,-0.2428,-0.2435,0,0,0,0,0,0,-0.2178,-0.2219,-0.2227,-0.225,-0.2271,-0.2325,-0.2338,-0.2349,-0.2368,-0.237,-0.2367,-0.2364,-0.2373,-0.2361,-0.2345,-0.2396,-0.2368,-0.237,-0.2408,-0.2415,-0.2422,-0.2392,-0.2339,0,0,0,0,0,-0.2172,-0.2192,-0.2225,-0.2241,-0.2254,-0.2293,-0.2308,-0.2327,-0.2348,-0.2358,-0.2374,-0.2384,-0.2389,-0.2385,-0.2396,-0.2407,-0.2341,-0.2428,-0.2434,-0.244,-0.2415,-0.2326,-0.2321,-0.238,-0.2379,-0.2379,0,0,-0.2161,-0.2189,-0.2197,-0.2235,-0.2265,-0.2301,-0.2302,-0.2328,-0.2355,-0.2344,-0.2396,-0.2403,-0.2396,-0.2428,-0.2431,-0.2415,-0.2397,-0.2444,-0.2448,-0.242,-0.2328,-0.2322,-0.2316,-0.2381,-0.2381,-0.2381,0,0,-0.2159,-0.2182,-0.2199,-0.2228,-0.2262,-0.2295,-0.2293,-0.2352,-0.2371,-0.2407,-0.2416,-0.2424,-0.2455,-0.246,-0.2459,-0.2497,-0.2435,-0.252,-0.2526,-0.2441,-0.2434,-0.2427,-0.236,-0.2346,-0.2522,-0.2523,-0.2523,0,-0.2141,-0.2178,-0.2204,-0.2239,-0.2256,-0.2289,-0.2311,-0.2352,-0.2401,-0.2397,-0.2423,-0.2451,-0.2468,-0.2455,-0.2504,-0.251,-0.2451,-0.2498,-0.2446,-0.2437,-0.2429,-0.2361,-0.2345,-0.2526,-0.2525,-0.2525,-0.2525,0,-0.2162,-0.2193,-0.2209,-0.2268,-0.2288,-0.2315,-0.236,-0.2394,-0.2425,-0.2447,-0.2449,-0.2477,-0.2476,-0.2512,-0.2532,-0.25,-0.2476,-0.2463,-0.2417,-0.2425,-0.2355,-0.2337,-0.253,-0.2529,-0.2528,-0.2527,0,0,-0.2096,-0.2203,-0.2203,-0.2225,-0.2302,-0.2313,-0.2366,-0.2387,-0.2382,-0.2445,-0.2424,-0.2485,-0.2482,-0.248,-0.2499,-0.2459,-0.24,-0.2454,-0.2448,-0.2372,-0.2212,-0.2138,-0.2112,-0.237,-0.2367,-0.2365,-0.2194,0,-0.2093,-0.2157,-0.2209,-0.2251,-0.2277,-0.2328,-0.2361,-0.2384,-0.2405,-0.241,-0.2413,-0.2419,-0.2472,-0.2477,-0.2444,-0.2408,-0.2352,-0.2447,-0.2227,-0.222,-0.214,-0.2088,-0.1963,-0.1794,-0.2176,-0.2173,-0.2171,0,-0.2071,-0.2119,-0.2171,-0.2222,-0.2234,-0.2276,-0.2286,-0.2317,-0.2329,-0.2342,-0.2333,-0.2342,-0.2327,-0.2366,-0.2255,-0.2311,-0.2266,-0.2231,-0.2222,-0.2109,-0.2111,-0.1844,-0.1746,-0.214,-0.2142,-0.2145,-0.2147,0,-0.1978,-0.2065,-0.2101,-0.2133,-0.222,-0.2237,-0.2268,-0.2288,-0.2271,-0.2291,-0.226,-0.2246,-0.2213,-0.216,-0.214,-0.2183,-0.1988,-0.2025,-0.1899,-0.1894,-0.1718,-0.1702,-0.1902,-0.1902,-0.1902,-0.1903,-0.1903,0,-0.1936,-0.1947,-0.2071,-0.2094,-0.2089,-0.2175,-0.2148,-0.2183,-0.2194,-0.2134,-0.2207,-0.2135,-0.2155,-0.2071,-0.2068,-0.1914,-0.1914,-0.1862,-0.1824,-0.1741,-0.173,-0.1977,-0.1988,-0.1897,-0.1898,-0.1899,-0.19,0,-0.1806,-0.1915,-0.1939,-0.2039,-0.2052,-0.2043,-0.2066,-0.2027,-0.2082,-0.2003,-0.2008,-0.2009,-0.1909,-0.1902,-0.1802,-0.1778,-0.1683,-0.1629,-0.1548,-0.1503,-0.1668,-0.1685,-0.145,-0.1446,-0.1442,-0.1439,-0.1436,0,-0.1747,-0.1757,-0.1846,-0.185,-0.1898,-0.1903,-0.1873,-0.1948,-0.1914,-0.1895,-0.1833,-0.1766,-0.1676,-0.152,-0.1485,-0.1405,-0.1515,-0.1243,-0.1305,-0.1624,-0.1611,-0.1634,-0.1655,-0.1107,-0.1101,-0.1097,-0.1094,0,-0.1588,-0.1634,-0.1656,-0.1668,-0.167,-0.165,-0.1649,-0.1622,-0.1677,-0.1633,-0.156,-0.1505,-0.1372,-0.1232,-0.1158,-0.1118,-0.1261,-0.1152,-0.1435,-0.1259,-0.129,-0.1283,-0.1316,-0.1056,-0.106,-0.1063,-0.1065,-0.1066,-0.1437,-0.1409,-0.1452,-0.144,-0.1444,-0.142,-0.1363,-0.1378,-0.1329,-0.1274,-0.129,-0.116,-0.1133,-0.094,-0.0878,-0.0854,-0.0962,-0.0939,-0.0955,-0.0975,-0.0984,-0.1008,-0.0724,-0.0725,-0.0727,-0.0728,-0.073,0,-0.1238,-0.123,-0.1207,-0.1222,-0.1169,-0.1237,-0.1201,-0.1144,-0.1066,-0.1018,-0.0959,-0.0796,-0.0686,-0.0679,-0.057,-0.0558,-0.0603,-0.0542,-0.0601,-0.0636,-0.0668,-0.0667,-0.032,-0.0319,-0.0318,-0.0317,0,0,-0.1138,-0.106,-0.1057,-0.0951,-0.0959,-0.0864,-0.0834,-0.0787,-0.0746,-0.0639,-0.0568,-0.0594,-0.0602,-0.0443,-0.0419,-0.0338,-0.0487,-0.0318,-0.0639,-0.0738,-0.0769,-0.0879,-0.0914,0,0,0,0,0]},{"header":{"parameterUnit":"m.s-1","parameterCategory":2,"la1":30.2991,"la2":30.254,"lo1":-89.0895,"lo2":-89.0444,"dy":0.0017,"dx":0.0017,"nx":28,"ny":28,"refTime":"2024-09-03T03:00:00:Z","depth":"2","parameterNumber":3,"parameterNumberName":"V-component_of_CURRENTS"},"data":[0,0,0,0,0,0,0,0,0,0,0,0,0,0,0,0,0,0,0,0,0,0,0,0,0,0,0,0,0,0,0,0,0,0,0,0,0,0,0,0,0,0,0,0,0,0,0,0,0,0,0,0,0,0,0,0,0,0,-0.0243,-0.0243,0,-0.0156,-0.0154,-0.0153,-0.0125,-0.0126,-0.0127,-0.0128,-0.0058,-0.0055,-0.0052,0,0,0,0,0,0,0,0,0,0,0,0,0,-0.0285,-0.0284,-0.0243,-0.0243,-0.0242,-0.0156,-0.0154,-0.0152,-0.0125,-0.0126,-0.0127,-0.0128,-0.0058,-0.0055,-0.0052,0,0,0,0,0,0,0,0,0,0,0,0,0,-0.0234,-0.0284,-0.0243,-0.0222,-0.0219,-0.0156,-0.0154,-0.0152,-0.0125,-0.0126,-0.0127,-0.0129,-0.0059,-0.0056,-0.0052,-0.0,0,0,-0.0039,-0.0037,0,0,0,0,0,0,0,0,-0.0237,-0.0232,-0.0225,-0.0223,-0.022,-0.0157,-0.0143,-0.0104,-0.0124,-0.0155,-0.0128,-0.0129,-0.0095,-0.0088,-0.0061,0.0003,0.0006,-0.0039,-0.0036,-0.0035,-0.0034,0,0,0,0,0,0,0,-0.0241,-0.0235,-0.0203,-0.0225,-0.0222,-0.0182,-0.0176,-0.0135,-0.0115,-0.0152,-0.0152,-0.015,-0.0093,-0.0065,-0.0059,0.0007,-0.0039,-0.0035,-0.0033,-0.0031,0.0045,0.0044,0,0,0,0,0,0,-0.0266,-0.0239,-0.0206,-0.0201,-0.0238,-0.0181,-0.0174,-0.0172,-0.0115,-0.0109,-0.0149,-0.0149,-0.0071,-0.0064,-0.0057,-0.0043,-0.0035,-0.0031,-0.0029,0.0045,0.0045,0.0044,0,0,0,0,0,0,-0.0267,-0.0264,-0.021,-0.0222,-0.0213,-0.018,-0.0176,-0.017,-0.0162,-0.0113,-0.0106,-0.0152,-0.0072,-0.0062,-0.005,-0.0039,-0.0029,-0.0025,0.0046,0.0045,0.0045,0.0016,0,0,0,0,0,0,-0.0268,-0.0264,-0.0268,-0.0224,-0.0214,-0.0195,-0.0175,-0.0167,-0.016,-0.016,-0.0113,-0.0106,-0.0072,-0.0057,-0.0046,-0.0033,-0.0022,0.0046,0.0045,0.0045,0.0017,0.0015,0.0012,0,0,0,0,0,-0.027,-0.0281,-0.0269,-0.0265,-0.0221,-0.0196,-0.0186,-0.0163,-0.016,-0.016,-0.0137,-0.0109,-0.0054,-0.0054,-0.0041,-0.0027,0.0047,0.0046,0.0045,0.0019,0.0015,0.0012,0,0,0,0,0,0,-0.0301,-0.0278,-0.0264,-0.0267,-0.0242,-0.0194,-0.019,-0.0174,-0.015,-0.0153,-0.0112,-0.0104,-0.009,-0.006,-0.0061,-0.001,0.0001,0.0003,-0.0023,-0.0026,-0.0028,-0.0015,-0.0019,0,0,0,0,0,-0.0309,-0.0312,-0.0279,-0.0281,-0.0272,-0.0232,-0.0218,-0.0201,-0.0176,-0.0167,-0.0128,-0.0096,-0.0076,-0.0057,-0.0029,0.0005,0.0034,0.002,0.0017,0.0014,0.0032,0.012,0.0128,0.0041,0.0041,0.0041,0,0,-0.032,-0.0309,-0.031,-0.0288,-0.0263,-0.0257,-0.0227,-0.0214,-0.0207,-0.0162,-0.0137,-0.0107,-0.0075,-0.0045,-0.0034,-0.002,0.0034,0.0013,0.0011,0.003,0.012,0.0129,0.0137,0.0041,0.0041,0.0041,0,0,-0.0354,-0.0335,-0.0353,-0.0336,-0.0313,-0.0282,-0.0288,-0.024,-0.022,-0.0197,-0.0166,-0.0129,-0.009,-0.0046,-0.0029,-0.0028,0.001,-0.0028,-0.0014,0.0071,0.008,0.0088,0.0053,0.0059,-0.0018,-0.0019,-0.0019,0,-0.037,-0.0384,-0.0352,-0.0363,-0.0352,-0.0304,-0.0312,-0.028,-0.0232,-0.0205,-0.0204,-0.0119,-0.0086,-0.0041,-0.0037,-0.0029,-0.0013,-0.0004,0.007,0.008,0.0089,0.0053,0.006,-0.002,-0.002,-0.002,-0.002,0,-0.0413,-0.0423,-0.0431,-0.0426,-0.0407,-0.0405,-0.036,-0.0327,-0.0295,-0.0253,-0.0202,-0.0144,-0.0087,-0.0073,-0.0052,0.0027,-0.0001,0.0049,0.0084,0.0097,0.0055,0.0063,-0.0022,-0.0022,-0.0021,-0.0021,0,0,-0.0453,-0.0462,-0.0465,-0.0467,-0.0439,-0.0422,-0.0402,-0.0356,-0.0327,-0.0269,-0.0216,-0.0163,-0.0106,-0.0081,-0.0034,0.005,0.0104,0.0082,0.0087,0.0053,0.021,0.0209,0.0216,0.0183,0.0186,0.0188,0.0125,0,-0.0496,-0.0538,-0.0519,-0.0532,-0.0544,-0.0481,-0.046,-0.0406,-0.0352,-0.028,-0.0201,-0.0142,-0.0121,-0.0075,0.0007,0.0097,0.0137,0.0111,0.0199,0.0199,0.0206,0.0233,0.0233,0.0183,0.0133,0.0134,0.0135,0,-0.0547,-0.0566,-0.0603,-0.0578,-0.0572,-0.0562,-0.0491,-0.0463,-0.0361,-0.0313,-0.0231,-0.0158,-0.0053,-0.0014,0.0115,0.01,0.0148,0.0207,0.0207,0.0238,0.0218,0.0179,0.0199,0.0149,0.0148,0.0147,0.0146,0,-0.06,-0.0615,-0.0644,-0.0641,-0.061,-0.0591,-0.0555,-0.0474,-0.0428,-0.0315,-0.0264,-0.0147,-0.0079,0.0036,0.0133,0.0144,0.0272,0.0298,0.0311,0.0304,0.0341,0.0336,0.0394,0.0394,0.0395,0.0395,0.0395,0,-0.066,-0.0675,-0.0669,-0.0685,-0.0679,-0.0634,-0.0595,-0.0543,-0.0445,-0.0384,-0.0281,-0.021,-0.0043,0.0047,0.0132,0.0228,0.0256,0.0317,0.0325,0.0317,0.0311,0.0334,0.0328,0.0392,0.0393,0.0393,0.0394,0,-0.0716,-0.0725,-0.0745,-0.0724,-0.0713,-0.0704,-0.0626,-0.0587,-0.0508,-0.0419,-0.0376,-0.0243,-0.0129,-0.0016,0.0154,0.0208,0.0318,0.0335,0.0252,0.0255,0.0271,0.0263,0.0344,0.0344,0.0344,0.0344,0.0345,0,-0.075,-0.0777,-0.0777,-0.0774,-0.0765,-0.0737,-0.0711,-0.063,-0.0574,-0.0442,-0.0396,-0.0272,-0.0164,0.0017,0.016,0.0271,0.029,0.0314,0.0373,0.0284,0.0283,0.0275,0.0268,0.0348,0.0348,0.0348,0.0348,0,-0.0795,-0.0797,-0.0809,-0.0813,-0.0801,-0.0772,-0.0721,-0.0687,-0.0579,-0.05,-0.0376,-0.0276,-0.0116,0.0053,0.0183,0.0253,0.031,0.032,0.0303,0.0377,0.029,0.0287,0.028,0.035,0.0349,0.0349,0.0349,0.0349,-0.0807,-0.0825,-0.0833,-0.0824,-0.0816,-0.0781,-0.0747,-0.0674,-0.0587,-0.0436,-0.0362,-0.0212,-0.0075,0.0144,0.0241,0.0314,0.0322,0.0358,0.0358,0.0357,0.0386,0.0308,0.0366,0.0366,0.0366,0.0366,0.0366,0,-0.0812,-0.0822,-0.0826,-0.082,-0.0801,-0.079,-0.0728,-0.0668,-0.0564,-0.044,-0.0297,-0.0121,0.0047,0.0154,0.0287,0.0376,0.0373,0.0376,0.0371,0.0369,0.0368,0.0398,0.0381,0.0381,0.0381,0.0381,0,0,-0.0812,-0.0817,-0.0819,-0.0789,-0.078,-0.0742,-0.0704,-0.0614,-0.0516,-0.036,-0.0248,-0.0088,0.0044,0.015,0.0261,0.0319,0.0312,0.0314,0.0296,0.0275,0.0273,0.0355,0.0399,0,0,0,0,0]}],[{"header":{"parameterUnit":"m.s-1","parameterCategory":2,"la1":30.2991,"la2":30.254,"lo1":-89.0895,"lo2":-89.0444,"dy":0.0017,"dx":0.0017,"nx":28,"ny":28,"refTime":"2024-09-03T03:00:00:Z","depth":"4","parameterNumber":2,"parameterNumberName":"U-component_of_CURRENTS"},"data":[0,0,0,0,0,0,0,0,0,0,0,0,0,0,0,0,0,0,0,0,0,0,0,0,0,0,0,0,0,0,0,0,0,0,0,0,0,0,0,0,0,0,0,0,0,0,0,0,0,0,0,0,0,0,0,0,0,0,-0.0977,-0.0977,0,-0.0962,-0.0962,-0.0961,-0.1007,-0.1008,-0.101,-0.1011,-0.113,-0.1131,-0.1133,0,0,0,0,0,0,0,0,0,0,0,0,0,-0.1002,-0.1002,-0.0977,-0.0977,-0.0977,-0.0962,-0.0962,-0.0961,-0.1007,-0.1008,-0.101,-0.1011,-0.1129,-0.1131,-0.1133,0,0,0,0,0,0,0,0,0,0,0,0,0,-0.099,-0.1002,-0.0977,-0.0997,-0.0999,-0.0962,-0.0962,-0.0961,-0.1006,-0.1008,-0.101,-0.1012,-0.1128,-0.1131,-0.1134,-0.111,0,0,-0.1142,-0.1144,0,0,0,0,0,0,0,0,-0.0991,-0.0989,-0.0995,-0.0996,-0.0998,-0.0988,-0.1014,-0.1018,-0.1006,-0.1004,-0.1011,-0.1013,-0.1093,-0.1099,-0.109,-0.1115,-0.1121,-0.1143,-0.1144,-0.1146,-0.1146,0,0,0,0,0,0,0,-0.0991,-0.099,-0.0971,-0.0994,-0.0996,-0.0992,-0.0993,-0.1014,-0.104,-0.1004,-0.1007,-0.1004,-0.1095,-0.1087,-0.1093,-0.1122,-0.1143,-0.1145,-0.1147,-0.1148,-0.1281,-0.1283,0,0,0,0,0,0,-0.0993,-0.099,-0.0972,-0.0971,-0.0999,-0.099,-0.0991,-0.0989,-0.1037,-0.1045,-0.1003,-0.1007,-0.1081,-0.109,-0.1098,-0.1197,-0.1146,-0.1148,-0.115,-0.1279,-0.1281,-0.1283,0,0,0,0,0,0,-0.0993,-0.0991,-0.0972,-0.098,-0.0978,-0.0988,-0.0985,-0.0988,-0.1031,-0.1034,-0.1045,-0.1049,-0.1083,-0.1094,-0.1157,-0.1198,-0.1149,-0.1152,-0.1277,-0.128,-0.1282,-0.1316,0,0,0,0,0,0,-0.0994,-0.0991,-0.1004,-0.098,-0.0977,-0.1007,-0.0983,-0.0986,-0.1023,-0.1029,-0.1077,-0.1086,-0.1085,-0.1153,-0.116,-0.1201,-0.1154,-0.1274,-0.1278,-0.1281,-0.1313,-0.132,-0.1326,0,0,0,0,0,-0.0995,-0.0994,-0.1005,-0.1003,-0.099,-0.1009,-0.101,-0.1022,-0.1024,-0.1065,-0.108,-0.1088,-0.118,-0.1156,-0.1164,-0.1207,-0.1273,-0.1277,-0.1281,-0.131,-0.1318,-0.1325,0,0,0,0,0,0,-0.1011,-0.0998,-0.1009,-0.1007,-0.1038,-0.1019,-0.1034,-0.1049,-0.1087,-0.1091,-0.1104,-0.1115,-0.119,-0.1194,-0.1167,-0.1257,-0.1231,-0.1237,-0.125,-0.1258,-0.1265,-0.126,-0.1157,0,0,0,0,0,-0.1019,-0.1016,-0.1027,-0.103,-0.1045,-0.1051,-0.1062,-0.1076,-0.1093,-0.1113,-0.1144,-0.1171,-0.1201,-0.1229,-0.1259,-0.1301,-0.1274,-0.1337,-0.1344,-0.1349,-0.1352,-0.1297,-0.1297,-0.1297,-0.1297,-0.1297,0,0,-0.1023,-0.1014,-0.1016,-0.1035,-0.1044,-0.1066,-0.1065,-0.1093,-0.1119,-0.1118,-0.1175,-0.1204,-0.1221,-0.127,-0.1304,-0.1285,-0.1347,-0.1354,-0.1359,-0.1359,-0.1301,-0.13,-0.1299,-0.13,-0.1299,-0.1299,0,0,-0.1024,-0.1031,-0.1039,-0.1067,-0.1095,-0.1094,-0.1121,-0.1143,-0.1174,-0.1228,-0.1227,-0.1277,-0.1336,-0.134,-0.135,-0.1412,-0.1387,-0.1441,-0.1463,-0.1409,-0.1407,-0.1406,-0.141,-0.1408,-0.1437,-0.1437,-0.1437,0,-0.1038,-0.1038,-0.1053,-0.1075,-0.1088,-0.1117,-0.1142,-0.1169,-0.1215,-0.1228,-0.1266,-0.1321,-0.1361,-0.1375,-0.1416,-0.1426,-0.1405,-0.1427,-0.1413,-0.141,-0.1408,-0.1412,-0.1409,-0.1439,-0.1439,-0.1438,-0.1438,0,-0.1048,-0.1063,-0.107,-0.1098,-0.1129,-0.115,-0.1188,-0.1222,-0.126,-0.1283,-0.1344,-0.1383,-0.1414,-0.1444,-0.1462,-0.1471,-0.1469,-0.1427,-0.1382,-0.1409,-0.1414,-0.141,-0.1442,-0.1441,-0.1441,-0.144,0,0,-0.1032,-0.1068,-0.1073,-0.1091,-0.1138,-0.1155,-0.1193,-0.1227,-0.1237,-0.1315,-0.1322,-0.142,-0.1448,-0.1463,-0.1483,-0.1461,-0.1466,-0.1454,-0.145,-0.1442,-0.1383,-0.1294,-0.1282,-0.1405,-0.1403,-0.1402,-0.1407,0,-0.1039,-0.1062,-0.1085,-0.1118,-0.1136,-0.1167,-0.1193,-0.1231,-0.1274,-0.1293,-0.1334,-0.137,-0.145,-0.1467,-0.1468,-0.1463,-0.1452,-0.1471,-0.1374,-0.1373,-0.1273,-0.1272,-0.1399,-0.1404,-0.1403,-0.1402,-0.1402,0,-0.1045,-0.1052,-0.1081,-0.1108,-0.1121,-0.1151,-0.117,-0.1208,-0.1235,-0.1264,-0.1304,-0.1335,-0.1377,-0.1401,-0.1424,-0.1431,-0.1429,-0.1414,-0.1411,-0.1307,-0.1274,-0.1365,-0.1395,-0.1395,-0.1396,-0.1396,-0.1397,0,-0.1008,-0.1049,-0.106,-0.1077,-0.1117,-0.1135,-0.1163,-0.1204,-0.1222,-0.1243,-0.1255,-0.1292,-0.133,-0.1314,-0.1386,-0.1385,-0.1366,-0.1339,-0.1255,-0.1251,-0.1315,-0.1316,-0.1303,-0.1303,-0.1303,-0.1303,-0.1303,0,-0.0984,-0.1001,-0.1048,-0.1055,-0.1056,-0.1123,-0.1132,-0.1154,-0.1187,-0.1206,-0.1259,-0.1267,-0.1307,-0.1325,-0.1344,-0.1319,-0.1342,-0.126,-0.1227,-0.1339,-0.1343,-0.1315,-0.1316,-0.1303,-0.1303,-0.1303,-0.1303,0,-0.094,-0.0974,-0.0985,-0.1028,-0.104,-0.1051,-0.1097,-0.1106,-0.1166,-0.1181,-0.1187,-0.1252,-0.1273,-0.1305,-0.1286,-0.1275,-0.1229,-0.1204,-0.1374,-0.1351,-0.1166,-0.1169,-0.1084,-0.1081,-0.1078,-0.1075,-0.1073,0,-0.0916,-0.0916,-0.0945,-0.0936,-0.0958,-0.0983,-0.0992,-0.1065,-0.1098,-0.1176,-0.1182,-0.1212,-0.1246,-0.1169,-0.1201,-0.1172,-0.116,-0.1149,-0.1119,-0.1157,-0.1134,-0.1143,-0.115,-0.1068,-0.1067,-0.1067,-0.1066,0,-0.0848,-0.0865,-0.086,-0.0846,-0.086,-0.087,-0.0925,-0.0936,-0.1042,-0.1094,-0.1117,-0.1101,-0.1111,-0.1098,-0.1089,-0.1073,-0.1152,-0.1117,-0.1122,-0.1094,-0.1137,-0.1119,-0.113,-0.1055,-0.1057,-0.1058,-0.1059,0,-0.0785,-0.0756,-0.0752,-0.0734,-0.0753,-0.0783,-0.0811,-0.0863,-0.09,-0.1025,-0.1023,-0.1058,-0.1105,-0.1047,-0.1042,-0.1009,-0.0979,-0.0949,-0.0963,-0.0975,-0.0933,-0.097,-0.08,0,0,0,0,0,-0.0711,-0.0664,-0.0636,-0.0629,-0.0663,-0.0685,-0.0774,-0.0828,-0.0943,-0.0926,-0.0976,-0.0972,-0.094,-0.0954,-0.0891,-0.098,-0.0987,-0.0904,-0.0961,-0.0998,-0.101,-0.0969,0,0,0,0,0,0,-0.0647,-0.0614,-0.0598,-0.0566,-0.0555,-0.0601,-0.0663,-0.0744,-0.0754,-0.0855,-0.0836,-0.0892,-0.087,-0.0942,-0.0858,-0.0862,-0.0875,-0.0923,-0.092,-0.0991,-0.1002,-0.1012,-0.0973,0,0,0,0,0]},{"header":{"parameterUnit":"m.s-1","parameterCategory":2,"la1":30.2991,"la2":30.254,"lo1":-89.0895,"lo2":-89.0444,"dy":0.0017,"dx":0.0017,"nx":28,"ny":28,"refTime":"2024-09-03T03:00:00:Z","depth":"4","parameterNumber":3,"parameterNumberName":"V-component_of_CURRENTS"},"data":[0,0,0,0,0,0,0,0,0,0,0,0,0,0,0,0,0,0,0,0,0,0,0,0,0,0,0,0,0,0,0,0,0,0,0,0,0,0,0,0,0,0,0,0,0,0,0,0,0,0,0,0,0,0,0,0,0,0,-0.0326,-0.0326,0,-0.035,-0.0351,-0.0352,-0.0379,-0.0379,-0.0379,-0.0378,-0.0329,-0.0328,-0.0327,0,0,0,0,0,0,0,0,0,0,0,0,0,-0.0314,-0.0315,-0.0326,-0.0326,-0.0325,-0.035,-0.0351,-0.0352,-0.0379,-0.0379,-0.0379,-0.0378,-0.033,-0.0328,-0.0327,0,0,0,0,0,0,0,0,0,0,0,0,0,-0.0333,-0.0315,-0.0326,-0.0337,-0.0338,-0.035,-0.0351,-0.0352,-0.0379,-0.0379,-0.0379,-0.0378,-0.033,-0.0328,-0.0327,-0.0322,0,0,-0.0322,-0.0321,0,0,0,0,0,0,0,0,-0.0332,-0.0334,-0.0336,-0.0336,-0.0337,-0.0356,-0.0328,-0.0336,-0.0379,-0.037,-0.0378,-0.0378,-0.0327,-0.0326,-0.0341,-0.032,-0.0317,-0.0321,-0.032,-0.032,-0.0319,0,0,0,0,0,0,0,-0.0331,-0.0333,-0.0342,-0.0335,-0.0336,-0.0344,-0.0347,-0.0331,-0.0354,-0.0371,-0.0371,-0.0364,-0.0328,-0.0343,-0.034,-0.0317,-0.0321,-0.032,-0.0319,-0.0318,-0.0322,-0.0323,0,0,0,0,0,0,-0.0315,-0.0332,-0.0341,-0.0342,-0.0327,-0.0344,-0.0348,-0.0355,-0.0355,-0.0354,-0.0364,-0.0365,-0.0346,-0.0342,-0.0338,-0.0366,-0.032,-0.0318,-0.0317,-0.0321,-0.0322,-0.0324,0,0,0,0,0,0,-0.0315,-0.0316,-0.034,-0.0332,-0.0334,-0.0344,-0.0352,-0.0356,-0.0377,-0.035,-0.0348,-0.0382,-0.0346,-0.034,-0.0341,-0.0363,-0.0317,-0.0316,-0.032,-0.0321,-0.0323,-0.04,0,0,0,0,0,0,-0.0315,-0.0316,-0.0322,-0.0331,-0.0334,-0.035,-0.0352,-0.0356,-0.0369,-0.0371,-0.0364,-0.0359,-0.0345,-0.0344,-0.0339,-0.036,-0.0314,-0.0318,-0.0321,-0.0323,-0.0396,-0.0404,-0.0411,0,0,0,0,0,-0.0314,-0.0325,-0.0323,-0.0323,-0.0341,-0.035,-0.0354,-0.0363,-0.037,-0.0382,-0.0386,-0.036,-0.0354,-0.0344,-0.0338,-0.0358,-0.0317,-0.032,-0.0322,-0.0392,-0.0402,-0.0411,0,0,0,0,0,0,-0.0323,-0.0328,-0.0326,-0.0338,-0.0341,-0.0352,-0.0361,-0.0369,-0.0385,-0.0388,-0.0372,-0.0368,-0.0377,-0.0356,-0.0345,-0.0366,-0.0332,-0.0333,-0.0387,-0.0396,-0.0403,-0.0399,-0.0313,0,0,0,0,0,-0.0325,-0.0338,-0.0336,-0.0346,-0.0347,-0.0357,-0.0363,-0.037,-0.0378,-0.0387,-0.0378,-0.0375,-0.0384,-0.0381,-0.0374,-0.0381,-0.033,-0.0391,-0.0399,-0.0405,-0.0399,-0.037,-0.0374,-0.0332,-0.0332,-0.0332,0,0,-0.0332,-0.0333,-0.0342,-0.0348,-0.0355,-0.0372,-0.0363,-0.0375,-0.0399,-0.0375,-0.0402,-0.0396,-0.0391,-0.0409,-0.041,-0.0393,-0.0384,-0.0408,-0.0414,-0.0404,-0.0373,-0.0377,-0.038,-0.0334,-0.0333,-0.0333,0,0,-0.0353,-0.0352,-0.0371,-0.0375,-0.0377,-0.0385,-0.0389,-0.0398,-0.0413,-0.0432,-0.0431,-0.0444,-0.0438,-0.0452,-0.0458,-0.05,-0.0425,-0.0491,-0.0525,-0.0499,-0.0502,-0.0504,-0.0413,-0.0406,-0.0496,-0.0496,-0.0496,0,-0.0359,-0.0384,-0.0377,-0.0393,-0.04,-0.0394,-0.0417,-0.0434,-0.0444,-0.0452,-0.0444,-0.0463,-0.0466,-0.05,-0.0526,-0.0518,-0.0459,-0.0495,-0.0508,-0.0509,-0.0509,-0.0416,-0.0408,-0.05,-0.0499,-0.0499,-0.0498,0,-0.0392,-0.0414,-0.0423,-0.0446,-0.0453,-0.047,-0.0478,-0.0491,-0.05,-0.0506,-0.0525,-0.0532,-0.0537,-0.0553,-0.0558,-0.0574,-0.0512,-0.052,-0.0484,-0.0518,-0.0417,-0.0407,-0.0505,-0.0504,-0.0503,-0.0502,0,0,-0.0403,-0.0442,-0.0446,-0.0467,-0.0482,-0.0492,-0.0527,-0.0549,-0.0564,-0.0571,-0.0587,-0.0629,-0.0608,-0.0613,-0.0614,-0.0607,-0.0572,-0.0568,-0.0565,-0.0474,-0.045,-0.0416,-0.0401,-0.0575,-0.0575,-0.0575,-0.0365,0,-0.0434,-0.0482,-0.049,-0.0537,-0.0563,-0.0563,-0.059,-0.0605,-0.061,-0.0617,-0.0626,-0.0634,-0.0637,-0.0637,-0.0635,-0.0586,-0.0553,-0.0624,-0.0432,-0.0425,-0.0391,-0.0393,-0.0573,-0.0357,-0.0355,-0.0353,-0.0351,0,-0.0466,-0.0494,-0.0548,-0.0585,-0.0593,-0.0618,-0.0642,-0.0663,-0.0669,-0.0665,-0.0665,-0.0647,-0.0643,-0.0645,-0.0555,-0.0589,-0.0524,-0.0482,-0.0473,-0.041,-0.0376,-0.0322,-0.0332,-0.0334,-0.0335,-0.0336,-0.0338,0,-0.0486,-0.0534,-0.0581,-0.0594,-0.0632,-0.0655,-0.0672,-0.0682,-0.068,-0.0687,-0.0658,-0.0649,-0.0609,-0.0561,-0.0467,-0.0502,-0.0336,-0.0373,-0.0268,-0.0261,-0.0317,-0.0318,-0.0304,-0.0304,-0.0305,-0.0305,-0.0306,0,-0.0519,-0.0555,-0.0597,-0.0624,-0.0662,-0.0676,-0.07,-0.0714,-0.0703,-0.0673,-0.0674,-0.0623,-0.0586,-0.0486,-0.0434,-0.029,-0.0294,-0.0255,-0.0217,-0.0349,-0.0356,-0.0307,-0.031,-0.0297,-0.0299,-0.0301,-0.0302,0,-0.0541,-0.0573,-0.0623,-0.0667,-0.068,-0.0705,-0.071,-0.071,-0.0695,-0.0652,-0.0642,-0.0568,-0.0442,-0.0367,-0.0249,-0.0212,-0.0114,-0.0061,-0.0142,-0.0113,-0.0057,-0.0067,0.007,0.0073,0.0075,0.0077,0.0078,0,-0.0561,-0.0591,-0.0645,-0.0663,-0.0688,-0.0715,-0.072,-0.0719,-0.0693,-0.06,-0.0562,-0.0437,-0.038,-0.0143,-0.0111,0.0026,0.0016,0.0092,-0.0064,-0.0048,-0.0024,-0.0038,-0.005,0.0082,0.0082,0.0083,0.0084,0,-0.0583,-0.0601,-0.0636,-0.067,-0.0691,-0.07,-0.07,-0.067,-0.0627,-0.0607,-0.0449,-0.0352,-0.0194,-0.0098,0.0027,0.0098,0.0037,0.0114,0.0107,-0.0038,-0.0032,-0.0014,-0.0029,0.0091,0.009,0.0089,0.0089,0,-0.0584,-0.0605,-0.0638,-0.0661,-0.0684,-0.0669,-0.0674,-0.0605,-0.0568,-0.0458,-0.0395,-0.0259,-0.0184,-0.0053,0.0052,0.0133,0.0109,0.0101,0.0095,0.0087,-0.0013,-0.001,0.017,0,0,0,0,0,-0.058,-0.0593,-0.0616,-0.0641,-0.0657,-0.0665,-0.0643,-0.0631,-0.0575,-0.0451,-0.0418,-0.0275,-0.0106,-0.004,0.005,0.0039,0.0091,0.0142,0.007,0.0134,0.0125,0.0002,0,0,0,0,0,0,-0.0575,-0.0603,-0.061,-0.0607,-0.0614,-0.0621,-0.0607,-0.0573,-0.0495,-0.0428,-0.0333,-0.027,-0.0115,-0.0154,0.0047,0.0069,0.0032,0.0218,0.0219,0.0139,0.0131,0.0124,-0.0006,0,0,0,0,0]}]]